User: anonymous   Login
Location: Bílinka
(49.3579°N, 14.3767°E)
Time: 20:18:36
(UTC+00:00)
Language:

CZ-4 DEB - Orbit

View from above orbital plane
View from above orbital plane
View from above satellite
View from above satellite

Ground track
Ground track

The orbit data is extracted from the following two-line orbital elements,

1 35332U 99057SL  24055.78781396  .00000295  00000-0  12774-3 0  9991
2 35332  98.2445 258.7403 0123025 143.1401 217.8316 14.26741403 97596
Epoch (UTC): 24 February 2024 18:54:27
Eccentricity: 0.0123025
inclination: 98.2445°
perigee height: 714 km
apogee height: 891 km
right ascension of ascending node: 258.7403°
argument of perigee: 143.1401°
revolutions per day: 14.26741403
mean anomaly at epoch: 217.8316°
orbit number at epoch: 9759

The dashed part of the orbit path shows where the satellite is in the earth's shadow,  

DLR